DELTA 1 DEB, 21501

Orbit data source: Space-Track

DELTA 1 DEB, 21501 is space debris in SSO originally from a launch on Thu, 12 Jun 1975 UTC launched from the Air Force Western Test Range (AFWTR). Debris objects in space refer to the collection of defunct objects orbiting the Earth. Examples of debris include non-operational satellites, rocket bodies, and fragments generated from explosions, collisions, or faulty payload assembly.

Loading next visibility...
Identifier
21501, 1975-052FW
Orbit
SSO
Country
Flag of USUS
Related business
Manufacturer
Unknown
Mission
Spacecraft
Bus & Motor
Unknown
Mass
Unknown
Launch date (UTC)
1975-06-12 (50 years ago)
Launch vehicle
Unknown
Launch site
Air Force Western Test Range (AFWTR)
Object type
Payload
Rocket body
Debris
Shape & HBR
Unknown shape, 0.1 m
Radar Cross Section
Small (<0.1 m²)

Expand to show TLE details & history
Last TLE update: 1 day ago

TLE from 1 day ago
0 DELTA 1 DEB
1 21501U 75052FW  25287.26144220  .00000271  00000-0  11999-2 0  9994
2 21501  99.8014 221.0783 0551340 343.6575 175.4951 12.47730166566686
Epoch: 2025-10-14T06:16Z
TLE epoch observation values (Epoch: 2025-10-14T06:16:28.606Z)
Latitude
20.07458°
Longitude
-72.4904°
Altitude
1,908.056 km
Speed
6.745 km/s
True Right ascension
02h 58m 43s
True Declination
19° 58' 46"
Sunlit
Object was in full shadow at epoch
Visualization orbit readout
Latitude
Unknown
Longitude
Unknown
Altitude
Unknown
Speed
Unknown
Apparent Right ascension
Unknown
Apparent Declination
Unknown
Sunlit
N/A
Visualization observer readout
Local Sidereal Time
09:57:33
Azimuth
Unknown
Elevation
Unknown
Doppler factor
Unknown
Orbital elements
Apogee altitude
1,904.215 km
Perigee altitude
1,038.658 km
Semi-major axis
7,849.574 km
Eccentricity
0.05513
Inclination
99.8014°
RAAN
221.0783°
Arg. of periapsis
343.6575°
True anomaly
175.95935°
Mean anomaly
175.4951°
Eccentric anomaly
175.73029°
Mean motion
3.12086 °/min
Orbital period
115.35 mins
BSTAR
0.0011999
Loading maneuver chart data...
Computing Atmospheric mass density...

Documentation

Showing up to 5 results
|